Location: ?????????
(38.0736°N, 23.2119°E)
Time: 03:45:44
(UTC+00:00)

Cosmos 2263 Rocket - Pass Details

Date: 18 April 2024
Orbit: 824 x 847 km, 71.0° (Epoch: 20 May)

Event Time Altitude Azimuth Distance (km) Brightness Sun altitude
Rises 19:17:49 0° 356° (N) 3,388 5.9 -23.9°
Reaches altitude 10° 19:22:20 10° 30° (NNE) 2,443 4.7 -24.6°
Maximum altitude 19:24:04 11° 48° (NE) 2,343 4.4 -24.9°
Enters shadow 19:24:27 11° 52° (NE) 2,347 4.4 -24.9°
